FW6922 Weather Reports


Display with metric or nautical units.
time (UTC)temp
F
wind
direction
speed
MPH
gust
MPH
rain 1hr
in
rain 24hr
in
rain mn
in
humidity
%
barometer
mb
20260505211530 75 292 8.0 14.0 0.00 0.00 0.00 46
20260505210029 74 287 7.0 11.0 0.00 0.00 0.00 46
20260505204531 74 286 8.0 12.0 0.00 0.00 0.00 47
20260505203032 73 287 7.0 12.0 0.00 0.00 0.00 47
20260505201528 73 285 8.0 16.0 0.00 0.00 0.00 47
20260505200031 72 285 6.0 11.0 0.00 0.00 0.00 48
20260505193030 71 277 8.0 15.0 0.00 0.00 0.00 51
20260505191531 70 288 9.0 14.0 0.00 0.00 0.00 51
20260505190030 70 282 9.0 17.0 0.00 0.00 0.00 53
20260505184606 69 277 8.0 16.0 0.00 0.00 0.00 55
20260505183103 68 286 10.0 17.0 0.00 0.00 0.00 55
20260505181529 67 287 10.0 17.0 0.00 0.00 0.00 57
20260505180104 67 282 10.0 16.0 0.00 0.00 0.00 58
20260505174607 66 285 10.0 15.0 0.00 0.00 0.00 59
20260505173029 65 284 9.0 15.0 0.00 0.00 0.00 61
20260505171531 64 278 8.0 15.0 0.00 0.00 0.00 63
20260505170028 63 286 9.0 14.0 0.00 0.00 0.00 65
20260505164530 62 288 9.0 14.0 0.00 0.00 0.00 67
20260505163030 61 279 8.0 14.0 0.00 0.00 0.00 70
20260505161530 60 288 9.0 14.0 0.00 0.00 0.00 72
20260505153028 57 279 2.0 5.0 0.00 0.00 0.00 83
20260505151532 55 247 1.0 4.0 0.00 0.00 0.00 86
20260505150104 53 135 1.0 3.0 0.00 0.00 0.00 88
20260505124530 50 276 2.0 4.0 0.00 0.00 0.00 87
20260505123106 50 235 1.0 5.0 0.00 0.00 0.00 86
20260505120030 51 219 2.0 4.0 0.00 0.00 0.00 84
20260505114531 53 270 1.0 5.0 0.00 0.00 0.00 84
20260505101531 56 250 2.0 5.0 0.00 0.00 0.00 80
20260505100107 56 245 3.0 7.0 0.00 0.00 0.00 80
20260505093030 58 237 3.0 8.0 0.00 0.00 0.00 78
20260505091529 57 267 5.0 12.0 0.00 0.00 0.00 79
20260505090056 57 259 5.0 9.0 0.00 0.00 0.00 79
20260505084531 56 242 4.0 7.0 0.00 0.00 0.00 77
20260505083029 58 216 3.0 4.0 0.00 0.00 0.00 75
20260505081530 59 242 4.0 7.0 0.00 0.00 0.00 74
20260505080029 59 244 4.0 8.0 0.00 0.00 0.00 73
20260505074530 59 242 4.0 7.0 0.00 0.00 0.00 72
20260505073031 59 245 4.0 8.0 0.00 0.00 0.00 70
20260505071530 60 266 2.0 7.0 0.00 0.00 0.00 69
20260505061532 62 258 5.0 12.0 0.00 0.00 0.00 63
20260505060029 62 248 6.0 9.0 0.00 0.00 0.00 61
20260505054530 63 247 5.0 8.0 0.00 0.00 0.00 59
20260505053106 63 230 4.0 9.0 0.00 0.00 0.00 59
20260505051531 63 210 5.0 9.0 0.00 0.00 0.00 57
20260505041638 66 249 4.0 7.0 0.00 0.00 0.00 54
20260505040107 67 253 5.0 9.0 0.00 0.00 0.00 54
20260505034605 67 252 7.0 15.0 0.00 0.00 0.00 55
20260505033030 67 248 5.0 12.0 0.00 0.00 0.00 56
20260505031527 68 254 5.0 9.0 0.00 0.00 0.00 55
20260505030032 69 261 5.0 10.0 0.00 0.00 0.00 54
20260505024531 71 280 6.0 9.0 0.00 0.00 0.00 52
20260505023030 72 271 7.0 10.0 0.00 0.00 0.00 50
20260505021530 72 280 8.0 15.0 0.00 0.00 0.00 49
20260505020029 73 287 9.0 14.0 0.00 0.00 0.00 48
20260505014530 74 287 9.0 15.0 0.00 0.00 0.00 46
20260505013030 75 284 11.0 18.0 0.00 0.00 0.00 45
20260505011530 76 283 10.0 17.0 0.00 0.00 0.00 44
20260505010032 77 284 11.0 18.0 0.00 0.00 0.00 42
20260505004529 77 285 12.0 21.0 0.00 0.00 0.00 42
20260505003103 78 286 11.0 17.0 0.00 0.00 0.00 42
20260505001531 78 286 10.0 17.0 0.00 0.00 0.00 41
20260505000029 79 283 11.0 18.0 0.00 0.00 0.00 40
20260504234529 79 283 11.0 18.0 0.00 0.00 0.00 41
20260504233030 79 289 10.0 16.0 0.00 0.00 0.00 41
20260504231529 79 294 9.0 15.0 0.00 0.00 0.00 40
20260504230149 80 294 10.0 16.0 0.00 0.00 0.00 39
20260504224531 80 289 10.0 17.0 0.00 0.00 0.00 38
20260504223030 80 288 10.0 17.0 0.00 0.00 0.00 38
20260504221606 81 280 9.0 14.0 0.00 0.00 0.00 37
20260504214531 81 289 9.0 14.0 0.00 0.00 0.00 33
20260504213030 82 274 6.0 12.0 0.00 0.00 0.00 31